SCP
2 3 3 3 3 3 5 6 6 6 5 5 3 2 2 1 1 1 1 2 1 1 1 1 1 1 1 2 2 2 2 1 1 0 0 0 0 0 0 0 0 0 0
2 2 3 3 3 4 5 5 5 5 5 5 3 2 2 1 1 1 1 1 1 1 1 1 1 1 1 2 2 2 2 1 1 0 0 0 0 0 0 0 0 0 0
1 2 2 3 3 4 5 5 5 5 5 5 4 3 2 1 1 1 1 1 1 1 1 1 1 1 1 2 2 3 2 1 0 0 0 0 0 0 0 0 0 0 0
1 2 2 2 2 3 4 5 5 5 6 6 5 3 2 1 1 1 1 1 1 1 1 1 1 1 1 1 2 3 2 1 0 0 0 0 0 0 0 0 0 0 0
1 1 2 2 2 2 4 4 4 5 6 6 5 4 3 2 1 1 1 1 1 1 1 1 1 1 1 1 2 2 2 1 0 0 0 0 0 0 0 0 0 0 0
1 1 2 2 1 2 3 4 4 5 6 5 5 4 3 2 2 1 1 1 1 1 1 1 1 1 1 1 1 2 2 1 1 0 0 0 0 0 0 0 0 0 0
1 1 2 1 1 1 2 3 3 4 4 4 4 4 3 3 2 2 1 1 1 1 1 1 1 1 1 1 1 1 1 1 1 0 0 0 0 0 0 0 0 0 0
0 1 1 1 1 0 1 2 3 3 3 3 3 3 3 3 2 2 1 1 1 1 1 1 1 1 1 1 1 1 1 1 1 0 0 0 0 0 0 0 0 0 0
0 0 1 1 0 0 0 1 2 2 2 3 3 3 3 3 2 2 2 1 1 1 1 1 1 1 1 1 1 1 1 1 1 1 0 0 0 0 1 0 0 0 0
0 0 0 0 0 0 0 0 1 1 2 3 3 3 3 2 2 2 1 1 1 1 1 1 1 1 1 1 1 1 2 2 1 1 1 0 0 0 1 1 0 0 0
0 0 0 0 0 0 0 0 1 1 2 2 3 3 3 2 2 1 1 1 1 1 1 2 1 1 1 1 1 1 2 2 2 1 1 0 0 0 0 1 0 0 0
0 0 0 0 0 0 0 0 0 1 1 2 3 3 2 2 2 1 1 1 1 1 2 2 1 1 1 1 1 1 2 2 2 1 1 0 0 0 0 0 0 0 0
0 0 0 0 0 0 0 0 0 1 1 2 2 2 2 2 1 1 1 1 1 1 2 2 1 1 1 1 1 1 1 1 1 1 1 0 0 0 0 0 0 0 0
0 0 0 0 0 0 0 0 0 0 1 1 2 1 1 1 1 1 1 1 1 1 2 1 1 1 1 1 1 1 1 1 1 1 1 1 0 0 0 0 0 0 0
0 0 0 0 0 0 0 0 0 0 0 1 1 1 0 0 0 0 1 1 1 1 1 1 1 1 1 1 1 1 1 1 1 1 1 1 0 0 0 0 1 0 0
0 0 0 0 0 0 0 0 0 0 0 0 0 0 0 0 0 0 0 1 1 1 1 1 1 1 1 0 0 1 1 0 1 1 1 0 0 0 0 0 0 0 0
0 0 0 0 0 0 0 0 0 0 0 0 0 0 0 0 0 0 0 0 1 1 1 1 1 1 1 0 0 0 0 0 0 1 1 0 0 0 0 0 0 0 0
0 0 0 0 0 0 0 0 0 0 0 0 0 0 0 0 0 0 0 0 1 1 1 0 0 0 0 0 0 0 0 0 0 1 0 0 0 0 0 0 0 0 0
0 0 0 0 0 0 0 0 0 0 0 0 0 0 0 0 0 0 0 0 0 0 0 0 0 0 0 0 0 0 0 0 0 0 0 0 0 0 0 0 0 0 0
0 0 0 0 0 0 0 0 0 0 0 0 0 0 0 0 0 0 0 0 0 0 0 0 0 0 0 0 0 0 0 0 1 0 0 0 0 0 0 0 0 0 0
0 0 0 0 0 0 0 0 0 0 0 0 0 0 0 0 0 0 0 0 0 0 0 0 0 0 0 0 0 0 0 0 0 0 0 0 0 0 0 0 0 0 0
0 0 0 0 0 0 0 0 0 0 0 0 0 0 0 0 0 0 0 0 0 0 0 0 0 0 0 0 0 0 0 0 0 0 0 0 0 0 0 0 0 0 0
0 0 0 0 0 0 0 0 0 0 0 0 0 0 0 0 0 0 0 0 0 0 0 0 0 0 0 0 0 0 0 0 0 0 0 0 0 0 0 0 0 0 0
0 0 0 0 0 0 0 0 0 0 0 0 0 0 0 0 0 0 0 0 0 0 0 0 0 0 0 0 0 0 0 0 0 0 0 0 0 0 0 0 0 0 0
0 0 0 0 0 0 0 0 0 0 0 0 0 0 0 0 0 0 0 0 0 0 0 0 0 0 0 0 0 0 0 0 0 0 0 0 0 0 0 0 0 0 0
0 0 0 0 0 0 0 0 0 0 0 0 0 0 0 0 0 0 0 0 0 0 0 0 0 0 0 0 0 0 0 0 0 0 0 0 0 0 0 0 0 0 0
Wind_Speed
2 1 1 1 1 1 1 0 1 1 0 0 0 0 1 1 1 1 1 1 1 1 1 2 2 3 3 4 5 4 5 3 3 3 2 2 2 1 1 1 1 1 1
2 1 0 0 1 1 1 1 1 1 0 0 1 1 1 1 1 1 1 1 2 1 1 3 2 3 3 4 4 4 3 3 3 3 3 2 0 1 0 0 1 1 1
3 2 1 1 2 2 2 1 1 2 1 0 0 1 0 1 1 1 1 1 2 2 1 2 3 3 4 4 5 5 4 4 3 2 3 3 3 1 1 1 1 1 1
1 1 1 2 2 2 2 2 2 2 1 1 1 1 1 2 2 2 1 1 1 2 2 2 3 3 3 4 5 4 3 5 5 3 1 2 3 3 2 1 1 2 1
1 1 1 2 2 2 2 2 2 1 1 1 1 2 2 1 1 1 2 2 1 2 2 2 2 3 3 4 5 5 4 4 4 4 2 1 1 2 3 2 2 1 2
1 2 2 2 2 1 1 1 2 2 1 1 2 2 2 1 1 1 2 2 1 1 2 2 2 3 3 4 5 5 5 4 3 3 2 2 2 3 2 3 3 2 2
2 2 3 2 2 2 2 2 2 2 2 2 2 2 2 2 3 3 2 2 2 2 3 2 2 3 3 4 4 4 4 4 5 4 3 2 2 1 2 3 3 2 1
3 3 3 3 2 3 3 3 3 3 3 3 3 2 2 2 2 3 3 3 2 3 3 3 3 3 4 4 4 4 4 4 4 4 4 2 2 2 2 3 3 2 2
4 4 3 3 3 3 4 4 3 3 3 3 3 2 2 2 3 3 3 2 3 2 3 3 4 3 4 5 5 4 4 4 4 4 4 3 2 2 2 2 3 4 3
5 6 4 4 3 3 4 4 3 3 3 3 3 3 3 3 3 3 3 3 3 3 3 4 4 4 4 5 5 4 4 5 5 4 4 3 2 2 2 2 2 2 3
5 5 5 4 3 3 3 4 4 3 3 3 3 3 3 3 3 3 4 3 3 3 4 5 4 5 5 6 5 5 5 6 5 4 5 4 4 3 2 2 2 2 2
5 5 5 5 4 4 3 3 3 3 3 3 3 3 3 3 3 3 4 3 3 4 4 4 5 5 5 6 6 6 6 6 6 6 5 5 4 4 3 3 3 2 2
6 6 5 6 6 5 4 4 3 4 3 3 3 3 3 3 3 3 3 3 4 4 4 4 4 5 6 6 6 6 6 6 6 6 6 6 5 5 4 3 3 2 2
6 6 6 6 7 6 5 5 5 5 4 3 3 3 4 4 4 4 4 4 4 4 4 4 4 5 5 6 6 5 6 5 5 5 6 6 6 6 5 4 4 3 2
6 6 7 7 7 7 7 6 5 6 5 4 4 4 4 4 4 4 4 4 4 4 4 3 3 4 5 5 5 5 5 6 5 5 5 5 6 7 6 5 5 4 3
7 7 8 8 8 8 8 8 7 7 6 4 4 4 4 4 4 4 4 4 4 3 3 3 4 5 4 5 7 6 5 5 6 6 5 5 6 7 7 7 7 7 6
7 7 7 7 8 8 8 8 7 7 6 5 4 4 3 3 3 4 3 4 3 3 3 4 4 5 5 7 8 8 5 5 6 6 6 5 5 6 5 5 6 6 8
7 7 7 7 7 7 7 7 7 6 5 5 5 4 4 3 3 3 3 3 3 3 4 3 4 4 6 8 9 8 6 5 5 6 6 6 5 6 6 5 5 5 5
6 6 6 6 7 7 7 7 7 6 6 5 6 5 4 3 3 3 3 3 3 3 3 3 4 4 5 9 10 8 5 4 5 5 5 6 6 8 8 6 6 5 4
6 6 6 6 6 6 6 6 7 6 6 6 6 6 5 4 3 4 3 3 3 3 3 3 3 4 4 8 10 9 5 5 4 4 5 6 7 8 9 7 6 6 5
6 6 6 6 6 6 6 7 7 7 6 6 6 6 5 4 4 3 3 3 3 2 2 2 2 2 3 6 9 10 5 6 5 4 4 5 8 8 8 7 6 7 5
7 6 6 6 6 6 6 7 7 8 7 6 6 6 5 4 3 3 3 2 2 1 2 1 1 1 1 2 6 9 8 6 5 5 4 4 8 8 8 7 7 7 5
7 6 6 6 6 5 5 6 8 8 7 7 6 6 6 4 3 2 2 2 1 1 1 1 1 1 1 2 4 6 7 6 4 3 5 6 7 6 6 7 8 6 4
6 6 6 6 7 6 6 6 7 7 7 7 6 6 5 4 3 2 2 1 1 1 1 1 1 1 1 1 2 2 3 4 3 3 4 4 5 4 5 5 5 4 4
5 5 5 6 7 7 6 7 7 7 7 6 6 5 4 4 3 3 2 2 1 1 2 1 1 1 1 1 2 2 2 3 3 3 2 2 2 2 2 2 3 3 3
5 6 6 6 7 7 6 6 6 6 6 6 5 4 3 3 3 3 3 4 3 4 4 4 2 1 1 1 2 3 3 4 4 2 2 2 3 3 3 3 2 2 3
Wind_Direction
179 156 144 125 297 272 161 218 328 326 44 75 68 282 276 278 232 192 193 206 217 241 203 179 177 177 163 162 156 149 142 136 126 113 103 55 47 75 80 107 117 114 125
157 148 172 68 275 203 181 215 300 303 262 231 233 234 249 251 248 205 194 198 211 222 223 188 181 183 165 157 157 153 152 150 149 145 139 139 81 322 187 128 139 145 145
179 187 213 261 245 212 194 232 268 289 272 254 264 311 306 276 264 235 215 217 214 209 225 221 183 181 174 173 167 161 167 167 173 167 154 157 177 170 215 213 160 148 155
197 197 235 291 258 220 201 210 235 275 276 240 226 220 238 241 260 249 232 225 212 211 219 242 199 185 175 176 177 167 168 168 177 187 209 179 147 151 158 211 201 181 187
235 260 267 275 266 226 207 208 228 258 268 266 237 225 242 252 268 262 234 214 202 199 218 245 220 195 183 177 178 173 170 176 179 180 187 180 169 159 151 182 201 208 211
307 294 294 279 284 276 233 225 234 253 245 250 253 243 232 232 238 258 245 218 212 217 220 229 218 202 194 182 183 181 178 179 180 180 176 173 176 188 166 172 189 203 220
331 312 305 296 291 295 285 251 242 247 250 248 248 245 237 220 221 229 237 235 221 220 220 222 215 202 199 187 181 179 177 178 179 181 188 189 192 195 167 155 177 189 214
339 316 313 308 296 299 300 275 245 246 242 241 249 250 245 232 232 234 232 229 228 223 213 214 208 201 196 192 184 181 182 181 182 186 186 184 197 189 180 171 165 172 217
341 327 315 303 299 298 296 284 259 250 245 243 245 245 244 247 245 245 242 233 229 227 217 215 206 204 197 189 182 185 187 184 184 186 187 185 200 195 194 180 171 170 195
341 333 322 308 293 286 286 292 269 251 252 243 238 244 243 247 245 240 245 241 235 226 223 216 208 203 200 189 184 188 191 185 187 184 181 190 192 190 185 181 190 181 181
331 329 321 310 304 300 298 298 287 269 261 246 237 240 247 249 240 237 244 246 241 230 227 216 208 207 204 192 188 193 191 190 189 188 186 192 183 186 193 190 193 194 175
335 330 327 325 330 323 309 300 305 273 259 254 244 240 248 251 248 248 248 247 245 241 232 220 212 213 209 196 193 196 197 193 192 192 189 195 189 189 192 194 199 198 188
341 341 342 341 338 327 319 318 316 299 279 266 254 252 253 254 254 256 258 252 249 245 230 219 213 218 213 200 201 200 199 198 196 193 191 194 190 195 194 194 194 195 193
340 343 341 340 336 328 327 328 325 316 299 281 264 254 254 257 261 264 266 262 252 244 231 223 219 222 211 197 196 198 197 196 198 197 194 192 194 195 192 193 193 185 180
338 340 340 338 331 333 335 331 326 323 310 289 273 263 260 262 266 268 270 268 258 251 239 226 225 224 210 193 189 193 196 191 194 194 195 196 196 199 197 195 185 181 183
335 338 339 335 332 333 330 331 330 325 317 303 288 280 262 259 260 260 264 267 260 256 243 226 229 223 217 196 198 200 196 193 193 194 194 196 196 199 203 205 199 193 190
332 332 329 325 325 326 325 324 320 321 319 315 310 310 300 266 257 259 261 258 259 258 249 230 229 226 218 203 202 207 198 196 196 192 189 195 200 197 194 202 209 214 217
329 326 323 322 323 322 323 320 318 321 320 321 320 313 306 295 282 271 264 264 266 257 251 242 233 229 221 208 204 202 199 198 199 196 193 191 192 198 192 194 203 214 220
322 317 315 314 318 321 322 321 323 325 325 324 320 312 305 299 296 285 277 275 272 262 254 251 241 231 225 212 204 198 192 195 199 199 198 193 194 201 199 194 197 211 226
325 323 322 320 322 323 325 323 322 325 323 320 315 311 306 299 292 287 282 278 268 258 251 253 243 234 229 213 200 196 189 189 194 197 200 203 204 203 201 198 195 208 215
324 323 322 322 321 324 327 322 323 320 316 316 317 316 310 301 294 293 289 274 267 262 256 246 241 234 224 199 198 199 192 186 190 197 199 204 206 208 211 212 207 216 213
325 324 321 317 319 327 330 324 322 320 323 322 322 322 314 307 309 302 297 287 271 255 254 239 227 234 223 203 197 201 203 194 191 199 198 200 206 213 218 220 220 218 215
319 320 316 315 322 330 331 321 320 325 327 327 325 325 321 316 313 302 300 308 306 291 280 242 216 211 180 172 191 196 198 199 196 197 201 205 210 218 217 220 219 208 196
315 317 320 320 321 325 327 319 321 326 325 325 323 323 327 326 327 321 315 319 317 319 301 278 238 202 176 161 165 176 184 193 196 186 187 200 206 222 222 214 210 204 202
315 317 317 314 315 319 323 323 325 327 326 322 319 321 325 323 326 330 322 318 306 313 295 267 245 209 210 209 191 168 174 183 187 169 165 174 182 200 208 197 194 192 194
315 317 317 316 317 321 323 325 327 328 324 322 324 325 327 327 330 336 343 341 340 344 346 343 321 305 297 168 174 182 173 169 167 154 161 192 197 199 195 187 183 185 191